Camden, NC

4:08 AM EDT on September 27, 2016 (GMT -0400)
Elizabeth City Cgas-Regional

Weather History for KECG - January, 2013

Change the Weather History Date:

Tuesday, January 15, 2013

  Actual Average Record
Temperature  
Mean Temperature 54 °F 41 °F  
Max Temperature 58 °F 51 °F 80 °F (1937)
Min Temperature 49 °F 32 °F 17 °F (1964)
Degree Days  
Heating Degree Days 11 24  
Month to date heating degree days 234 360  
Since 1 July heating degree days 1126 1515  
Cooling Degree Days 0 0  
Month to date cooling degree days 2 0  
Year to date cooling degree days 2 0  
Moisture  
Dew Point 47 °F    
Average Humidity 83    
Maximum Humidity 89    
Minimum Humidity 77    
Precipitation  
Precipitation T in 0.10 in 1.24 in (1944)
Month to date precipitation 0.29 1.51  
Year to date precipitation 0.29 1.51  
Snow  
Snow 0.00 in - T in (2006)
Month to date snowfall 0.0  
Since 1 July snowfall 0.0  
Snow Depth 0.00 in    
Sea Level Pressure  
Sea Level Pressure 30.20 in    
Wind  
Wind Speed 9 mph (NNE)    
Max Wind Speed 18 mph    
Max Gust Speed 22 mph    
Visibility 6 miles    
Events Fog , Rain    
T = Trace of Precipitation, MM = Missing Value Source: NWS Daily Summary

Daily Weather History Graph

Daily Weather History Graph

Search for Another Location

Airport or City:

Trip Planner

Search our weather history database for the weather conditions in past years. The results will help you decide how hot, cold, wet, or windy it might be!

Date:

Astronomy

Jan. 15, 2013 Rise Set
Actual Time 7:15 AM EST 5:13 PM EST
Civil Twilight 6:47 AM EST 5:41 PM EST
Nautical Twilight 6:15 AM EST 6:13 PM EST
Astronomical Twilight 5:44 AM EST 6:44 PM EST
Moon 9:28 AM EST (1/15) 9:51 PM EST (1/15)
Length of Visible Light 10h 54m
Length of Day
9h 58m
Waxing Crescent, 19% of the Moon is Illuminated
Jan 15
Waxing Crescent
Jan 18
First Quarter
Jan 26
Full
Feb 3
Last Quarter
Feb 10
New

Hourly Weather History & Observations

Time (EST) Temp. Dew Point Humidity Pressure Visibility Wind Dir Wind Speed Gust Speed Precip Events Conditions
12:54 AM 53.1 °F 46.9 °F 80% 30.19 in 10.0 mi North 15.0 mph - N/A   Overcast
1:54 AM 51.1 °F 46.0 °F 83% 30.20 in 10.0 mi North 11.5 mph - N/A   Overcast
2:54 AM 51.1 °F 45.0 °F 80% 30.21 in 10.0 mi North 11.5 mph - N/A   Overcast
3:54 AM 50.0 °F 46.0 °F 86% 30.22 in 3.0 mi North 12.7 mph - N/A   Overcast
4:35 AM 48.2 °F 44.6 °F 87% 30.21 in 4.0 mi North 11.5 mph - 0.00 in   Overcast
4:54 AM 48.9 °F 45.0 °F 86% 30.20 in 7.0 mi North 10.4 mph - 0.00 in   Overcast
5:42 AM 50.0 °F 44.6 °F 82% 30.19 in 10.0 mi NE 10.4 mph - N/A   Overcast
5:54 AM 50.0 °F 45.0 °F 83% 30.19 in 10.0 mi NE 11.5 mph - N/A   Overcast
6:54 AM 50.0 °F 45.0 °F 83% 30.19 in 10.0 mi NE 10.4 mph - N/A   Overcast
7:54 AM 50.0 °F 45.0 °F 83% 30.22 in 10.0 mi NNE 8.1 mph - N/A   Overcast
8:31 AM 50.0 °F 46.4 °F 87% 30.22 in 10.0 mi NE 5.8 mph - N/A   Overcast
8:54 AM 51.1 °F 46.9 °F 86% 30.22 in 8.0 mi NE 5.8 mph - N/A   Overcast
9:54 AM 53.1 °F 48.0 °F 83% 30.22 in 3.0 mi North 5.8 mph - N/A   Haze
10:54 AM 53.1 °F 48.9 °F 86% 30.23 in 3.0 mi North 8.1 mph - N/A   Overcast
11:46 AM 53.6 °F 50.0 °F 88% 30.21 in 1.0 mi North 11.5 mph - N/A   Overcast
11:54 AM 53.1 °F 50.0 °F 89% 30.22 in 1.0 mi WNW 5.8 mph - N/A   Overcast
12:16 PM 53.6 °F 48.2 °F 82% 30.21 in 2.5 mi North 13.8 mph - 0.00 in Rain Light Rain
12:47 PM 50.0 °F 46.4 °F 87% 30.22 in 3.0 mi North 15.0 mph - 0.00 in   Overcast
12:54 PM 50.0 °F 46.0 °F 86% 30.22 in 3.0 mi North 15.0 mph - 0.00 in   Overcast
1:02 PM 50.0 °F 46.4 °F 87% 30.22 in 2.0 mi North 11.5 mph - N/A   Overcast
1:54 PM 50.0 °F 46.0 °F 86% 30.21 in 2.0 mi NNE 11.5 mph - N/A   Overcast
2:01 PM 51.8 °F 46.4 °F 82% 30.21 in 8.0 mi NNE 11.5 mph - N/A   Overcast
2:10 PM 50.0 °F 46.4 °F 87% 30.21 in 8.0 mi NNE 11.5 mph - N/A   Overcast
2:54 PM 50.0 °F 45.0 °F 83% 30.20 in 10.0 mi NNE 12.7 mph - N/A   Overcast
3:54 PM 50.0 °F 45.0 °F 83% 30.20 in 10.0 mi NE 13.8 mph - N/A   Overcast
4:54 PM 51.1 °F 46.0 °F 83% 30.20 in 10.0 mi NE 9.2 mph - N/A   Overcast
5:54 PM 52.0 °F 46.9 °F 83% 30.20 in 10.0 mi NE 8.1 mph - N/A   Overcast
6:54 PM 52.0 °F 46.9 °F 83% 30.20 in 10.0 mi NNE 5.8 mph - N/A   Overcast
7:52 PM 51.8 °F 48.2 °F 88% 30.18 in 2.0 mi North 6.9 mph - N/A   Overcast
7:53 PM 51.1 °F 48.0 °F 89% 30.18 in 1.8 mi North 6.9 mph - N/A   Overcast
8:54 PM 51.1 °F 48.0 °F 89% 30.16 in 1.0 mi NNE 5.8 mph - N/A   Overcast
9:01 PM 51.8 °F 48.2 °F 88% 30.16 in 0.8 mi NNE 5.8 mph - N/A   Overcast
9:54 PM 51.1 °F 48.0 °F 89% 30.14 in 0.5 mi NNE 4.6 mph - N/A Fog Fog
10:54 PM 51.1 °F 48.9 °F 92% 30.12 in 0.5 mi NE 5.8 mph - N/A Fog Fog
11:54 PM 52.0 °F 48.9 °F 89% 30.09 in 0.8 mi NNE 4.6 mph - N/A   Mist